#timestamp,LO_Frequency,Hit 
1502805615.4,286047000.2,N
1502805635.3,286047002.8,N
1502805655.1,286047002.7,N
1502805656.0,286047002.7,N
1502805675.8,286047002.1,N
1502805695.7,286047001.6,N
1502805715.5,286047001.4,N
1502805735.3,286046999.8,N
1502805755.2,286047000.9,N
1502805775.9,286046998.1,N
1502805795.7,286047000.8,N
1502805815.5,286047000.7,N
1502805835.4,286047000.7,N
1502805855.2,286046998.3,N
1502805875.0,286046999.0,N
1502805875.9,286046999.0,N
1502805895.8,286046998.8,N
1502805915.6,286046997.9,N
1502805935.4,286046994.9,N
1502805955.3,286046996.3,N
1502805975.1,286046999.4,N
1502805976.0,286046999.4,N
1502805995.8,286046995.1,N
1502806015.7,286046995.4,N
1502806035.5,286046996.8,N
1502806055.3,286046998.8,N
1502806075.1,286046998.8,N
1502806095.9,286047000.1,N
1502806115.7,286047000.5,N
1502806135.5,286046998.7,N
1502806155.4,286046998.9,N
1502806175.2,286047001.8,N
1502806195.0,286047001.6,N
1502806195.9,286047001.6,N
1502806215.8,286047002.0,N
1502806235.6,286047001.6,N
1502806255.4,286046999.8,N
1502806275.3,286047001.0,N
1502806295.1,286047000.5,N
1502806296.0,286047000.5,N
1502806315.8,286047000.2,N
1502806335.7,286046999.7,N
1502806355.5,286047000.3,N
1502806375.3,286047001.0,N
1502806395.1,286047002.6,N
1502806415.9,286047005.9,N
1502806435.7,286047004.3,N
1502806455.5,286047002.9,N
1502806475.4,286047004.9,N
1502806495.2,286047001.4,N
1502806515.0,286047002.1,N
1502806515.9,286047002.1,N
1502806535.8,286046998.2,N
1502806555.6,286046998.1,N
1502806575.4,286046998.2,N
1502806595.3,286047000.3,N
1502806615.1,286047000.9,N
1502806616.0,286047000.9,N
1502806635.8,286046999.8,N
1502806655.6,286047000.3,N
1502806675.5,286047000.5,N
1502806695.3,286046999.0,N
1502806715.1,286046999.5,N
1502806735.9,286046997.0,N
1502806755.7,286046999.6,N
1502806775.5,286046996.6,N
1502806795.4,286046998.5,N
1502806815.2,286046997.1,N
1502806835.0,286046997.0,N
1502806835.9,286046997.0,N
1502806855.8,286046997.2,N
1502806875.6,286046997.9,N
1502806895.4,286046995.9,N
1502806915.2,286046996.3,N
1502806935.1,286046998.0,N
1502806936.0,286046998.0,N
1502806955.8,286046998.8,N
1502806975.6,286046999.1,N
1502806995.5,286046998.2,N
1502807015.3,286046998.7,N
1502807035.1,286046998.1,N
1502807055.9,286047000.5,N
1502807075.7,286047000.2,N
1502807095.5,286047002.8,N
1502807115.4,286046998.6,N
1502807135.2,286047000.3,N
1502807155.0,286047000.7,N
1502807155.9,286047000.7,N
1502807175.7,286047000.8,N
1502807195.6,286047000.5,N
1502807215.4,286047001.2,N
1502807235.2,286046999.6,N
1502807255.1,286046999.5,N
1502807256.0,286046999.5,N
1502807275.8,286046997.3,N
1502807295.6,286046993.8,Y
1502807315.5,286046995.8,N
1502807335.3,286046993.7,Y
1502807355.1,286046995.5,N
1502807375.9,286046995.1,N
1502807395.7,286046993.3,Y
1502807415.5,286046995.3,N
1502807435.4,286046997.5,N
1502807455.2,286046997.2,N
1502807475.0,286046999.5,N
1502807475.9,286046999.5,N
1502807495.8,286046999.6,N
1502807515.6,286046996.8,N
1502807535.4,286046998.0,N
1502807555.3,286046998.0,N
1502807575.1,286046995.8,N
1502807576.0,286046995.8,N
1502807595.8,286046995.7,N
1502807615.7,286046994.3,N
1502807635.5,286046996.3,N
1502807655.3,286046993.9,N
1502807675.1,286046995.9,N
1502807695.9,286046996.4,N
1502807715.7,286046994.4,N
1502807735.5,286046994.2,N
1502807755.4,286046994.4,N
1502807775.2,286046992.3,Y
1502807795.0,286046995.4,N
1502807795.9,286046995.4,N
1502807815.8,286046996.7,N
1502807835.6,286046997.6,N
1502807855.4,286046997.2,N
1502807875.3,286046998.0,N
1502807895.1,286046997.8,N
1502807896.0,286046997.8,N
1502807915.8,286046997.2,N
1502807935.7,286046995.6,N
1502807955.5,286046995.1,N
1502807975.3,286046995.2,N
1502807995.2,286046993.9,Y
1502808015.9,286046996.7,N
1502808035.7,286046998.3,N
1502808055.5,286046998.2,N
1502808075.4,286046998.6,N
1502808095.2,286047001.2,N
1502808115.0,286047001.1,N
1502808115.9,286047001.1,N
1502808135.8,286046998.1,N
1502808155.6,286046998.7,N
1502808175.4,286047000.8,N
1502808195.3,286046998.2,N
1502808215.1,286046998.3,N
1502808216.0,286046998.3,N
1502808235.8,286046997.3,N
1502808255.7,286046997.3,N
1502808275.5,286046996.9,N
1502808295.3,286046996.9,N
1502808315.2,286046997.7,N
1502808335.9,286046998.0,N
1502808355.7,286046995.0,N
1502808375.6,286046996.4,N
1502808395.4,286046996.0,N
1502808415.2,286046994.9,N
1502808435.0,286046995.9,N
1502808435.9,286046995.9,N
1502808455.8,286046996.2,N
1502808475.6,286046993.6,Y
1502808495.4,286046997.8,N
1502808515.3,286046997.1,N
1502808535.1,286046997.7,N
1502808555.8,286046997.9,N
1502808575.7,286046995.0,N
1502808595.5,286046995.1,N
1502808615.3,286046996.8,N
1502808635.2,286046997.9,N
1502808655.9,286046997.6,N
1502808675.7,286046995.5,N
1502808695.6,286046996.8,N
1502808715.4,286046997.2,N
1502808735.2,286046997.7,N
1502808755.0,286046995.3,N
1502808755.9,286046995.3,N
1502808775.8,286046995.5,N
1502808795.6,286046998.0,N
1502808815.4,286046997.0,N
1502808835.3,286046997.8,N
1502808855.1,286047001.2,N
1502808856.0,286047001.2,N
1502808875.8,286047000.7,N
1502808895.7,286047001.1,N
1502808915.5,286046998.3,N
1502808935.3,286046997.9,N
1502808955.2,286046997.8,N
1502808975.9,286046995.2,N
1502808995.7,286046995.4,N
1502809015.6,286046994.5,Y
1502809035.4,286046996.6,N
1502809055.2,286046999.3,N
1502809075.0,286046998.4,N
1502809076.0,286046998.4,N
1502809095.8,286046996.6,N
1502809115.6,286046999.5,N
1502809135.4,286046995.4,N
1502809155.3,286046997.2,N
1502809175.1,286046999.1,N
1502809195.8,286046997.2,N
